カタログに戻る

INTELSAT 9

PAS 9

運用中通信GEO
NORAD 26451·PAYLOAD·🇺🇸 United States

打ち上げ Jul 28, 2000 から Sea Launch Platform

Loading…

TLE

最新Source: Space-Track

元期: Sep 14, 2026, 12:22 UTC

1 26451U 00043A   26257.51559532  .00000092  00000-0  00000-0 0  9993
2 26451  10.5648  48.3351 0004205 174.6157  15.6524  0.99399731 44999

AllMySatでINTELSAT 9をリアルタイム追跡

Download on the App Store